Location: Aressy
(43.2833°N, 0.3167°W)
Time: 12:15:43
(UTC+00:00)

Cosmos 2297 - Visible Passes

Search period start: 16 May 2021 00:00
Search period end: 26 May 2021 00:00
Orbit: 837 x 857 km, 71.0° (Epoch: 15 May)

Date Brightness Start Highest point End Pass type
(mag) Time Alt. Az. Time Alt. Az. Time Alt. Az.
16 May 5.0 20:11:27 10° SE 20:15:26 20° E 20:19:24 10° NE visible
16 May 4.1 21:53:25 10° SW 21:59:02 62° WNW 22:04:42 10° NNE visible
16 May 6.5 23:42:09 10° WNW 23:44:25 12° NW 23:46:42 10° NNW visible
17 May 5.0 19:58:08 10° SE 20:02:02 19° E 20:05:57 10° NE visible
17 May 4.1 21:40:00 10° SW 21:45:38 63° WNW 21:51:18 10° NNE visible
17 May 6.5 23:28:37 10° WNW 23:31:00 13° NW 23:33:22 10° NNW visible
18 May 4.1 21:26:35 10° SW 21:32:14 65° WNW 21:37:54 10° NNE visible
18 May 6.5 23:15:06 10° WNW 23:17:34 13° NW 23:20:02 10° NNW visible
19 May 4.1 21:13:11 10° SW 21:18:50 66° WNW 21:24:29 10° NNE visible
19 May 6.5 23:01:35 10° WNW 23:04:08 13° NW 23:06:42 10° NNW visible
20 May 4.1 20:59:46 10° SSW 21:05:26 68° WNW 21:11:06 10° NNE visible
20 May 6.6 22:48:04 10° WNW 22:50:43 13° NW 22:53:22 10° NNW visible
21 May 4.1 20:46:21 10° SSW 20:52:01 69° WNW 20:57:42 10° NNE visible
21 May 6.6 22:34:34 10° WNW 22:37:17 13° NW 22:40:01 10° NNW visible
22 May 6.9 03:57:34 10° NNE 04:00:14 13° NE 04:02:54 10° ENE visible
22 May 4.1 20:32:57 10° SSW 20:38:37 71° WNW 20:44:18 10° NNE visible
22 May 6.7 22:21:04 10° WNW 22:23:52 14° NW 22:26:40 10° NNW visible
23 May 7.0 03:44:13 10° NNE 03:46:48 13° NE 03:49:24 10° ENE visible
23 May 4.1 20:19:32 10° SSW 20:25:13 72° WNW 20:30:54 10° NNE visible
23 May 6.7 22:07:34 10° WNW 22:10:26 14° NW 22:13:19 10° NNW visible
24 May 7.1 03:30:53 10° NNE 03:33:23 13° NE 03:35:53 10° ENE visible
24 May 4.0 20:06:08 10° SSW 20:11:49 74° WNW 20:17:30 10° NNE visible
24 May 6.8 21:54:05 10° WNW 21:57:01 14° NW 21:59:58 10° NNW visible
25 May 7.1 03:17:33 10° NNE 03:19:58 13° NE 03:22:21 10° ENE visible
25 May 4.0 19:52:44 10° SSW 19:58:25 75° WNW 20:04:06 10° NNE visible
25 May 6.8 21:40:35 10° WNW 21:43:36 14° NW 21:46:37 10° N visible
